Location: Amon Carter Post Office
(32.8281°N, 97.0484°W)
Time: 10:39:38
(UTC+00:00)

Meteor 2-15 Rocket - Pass Details

Date: 14 July 2022
Orbit: 939 x 956 km, 82.5° (Epoch: 13 August)

Event Time Altitude Azimuth Distance (km) Brightness Sun altitude
Rises 10:53:11 0° 340° (NNW) 3,631 7.7 -7.6°
Reaches altitude 10° 10:55:58 10° 331° (NNW) 2,679 6.9 -7.1°
Maximum altitude 11:01:12 31° 272° (W) 1,608 5.2 -6.2°
Drops below altitude 10° 11:06:24 10° 212° (SSW) 2,656 6.3 -5.3°
Sets 11:09:10 0° 202° (SSW) 3,594 7.0 -4.8°
